Current Version              Previous Version:    01  02  03  04  05  06  07  08  09  10  11  12  13  14  15  16  17  18  19  20  21  22  23  24  25  26  27  28  29  30  
   31  32  33  34  35  36  37  38  39  40  41  42  43  44  45  46  47  48  49  50  51  52  53  54  55  56  57  58  59  60  

[Printable]
941
ASUS44 KFWD 241501
RWRTX
NORTH TEXAS HOURLY WEATHER ROUNDUP
NATIONAL WEATHER SERVICE FORT WORTH TX
900 AM CST MON NOV 24 2014

NOTE: "FAIR" INDICATES FEW OR NO CLOUDS BELOW 12,000 FEET WITH NO
SIGNIFICANT WEATHER AND/OR OBSTRUCTIONS TO VISIBILITY.

TXZ118-119-241600-
DALLAS/FORT WORTH METROPLEX

CITY           SKY/WX    TMP DP  RH WIND       PRES   REMARKS
DFW AIRPORT    MOSUNNY   45  30  55 NW10      30.03R WCI  40
DALLAS LOVE    MOSUNNY   46  33  60 NW6       30.04R
FTW MEACHAM    SUNNY     46  30  53 NW12      30.04R
DAL-EXECUTIVE  MOSUNNY   49  32  52 W8        30.03R
FTW-ALLIANCE   MOSUNNY   46  30  53 NW10      30.03
FTW-SPINKS     SUNNY     46  32  57 SW6       30.07R
ARLINGTON      MOSUNNY   49  31  49 W6        30.05R
GRAND PRAIRIE  SUNNY     46  34  61 W3        30.06
ADDISON        MOSUNNY   45  34  65 W7        30.03R
LANCASTER      MOSUNNY   49  32  51 NW10      30.05R
$$

TXZ091>094-102>105-117-120-121-131>134-241600-
NORTH CENTRAL TEXAS

CITY           SKY/WX    TMP DP  RH WIND       PRES   REMARKS
SHRMAN/DENISON SUNNY     44  36  73 W8        30.03R WCI  40
BRIDGEPORT     SUNNY     46  31  58 W9        30.07R
DENTON         SUNNY     45  31  58 NW14      30.02R WCI  38
MCKINNEY       SUNNY     48  32  53 NW13      30.02R
ROCKWALL       SUNNY     47  35  62 NW5       30.01R
TERRELL        SUNNY     51  36  56 W5        30.04R
WAXAHACHIE     MOSUNNY   49  35  58 NW8       30.05R
$$

TXZ083>090-098>101-113>116-127>130-139>142-154-155-241600-
WESTERN NORTH TEXAS

CITY           SKY/WX    TMP DP  RH WIND       PRES   REMARKS
WICHITA FALLS  MOSUNNY   43  27  53 W10       30.04R WCI  37
WF-KICKAPOO    SUNNY     42  26  53 W9        30.07R WCI  36
ABILENE        SUNNY     41  32  70 SW3       30.10R
ABILENE-DYESS  SUNNY     43  30  60 W6        30.08R WCI  40
MINERAL WELLS  SUNNY    N/A N/A N/A NW10      30.04R
STEPHENVILLE   MOSUNNY   46  28  50 NW10      30.09R
COMANCHE       MOSUNNY   44  32  63 NW6       30.08R
$$

TXZ143>147-156>162-174-175-241600-
CENTRAL TEXAS

CITY           SKY/WX    TMP DP  RH WIND       PRES   REMARKS
WACO           MOSUNNY   49  34  56 NW12      30.07R
WACO-MCGREGOR  MOSUNNY   48  36  61 NW12      30.08R
CORSICANA      MOSUNNY   51  37  58 NW14      30.06R
MEXIA          SUNNY     48  38  67 NW7       30.05R
TEMPLE         MOSUNNY   52  34  50 NW12      30.06
KILLEEN        PTSUNNY   52  31  44 NW15      30.07R
KILLEEN-SKYLRK MOSUNNY   50  30  46 NW12      30.05R
FORT HOOD      MOSUNNY   53  33  46 NW17      30.06R
HAMILTON       MOSUNNY   46  32  56 NW8       30.08R
LAMPASAS       PTSUNNY   50  37  61 NW7       30.07R
$$

TXZ095>097-106>112-122>126-135>138-148>153-164>167-241600-
EAST TEXAS

CITY           SKY/WX    TMP DP  RH WIND       PRES   REMARKS
PARIS          SUNNY     46  32  57 NW8G16    29.99R
SULPHUR SPRNGS SUNNY     49  33  54 NW7       30.03R
MINEOLA        SUNNY     48  34  57 W6        30.05R
TYLER          SUNNY     50  37  61 NW10      30.02R
LONGVIEW       SUNNY     51  37  58 NW15      30.00R
JACKSONVILLE   SUNNY     50  36  58 NW6       30.03R
NACOGDOCHES    SUNNY     52  37  58 N5        30.03R
LUFKIN         SUNNY     53  39  59 NW8       30.03R
$$

SUPPLEMENTAL OBSERVATIONS (CENTRAL)

CITY           SKY/WX    TMP DP  RH WIND       PRES   REMARKS
$$

SUPPLEMENTAL OBSERVATIONS (WEST)

CITY           SKY/WX    TMP DP  RH WIND       PRES   REMARKS
$$

SUPPLEMENTAL OBSERVATIONS (EAST)

CITY           SKY/WX    TMP DP  RH WIND       PRES   REMARKS
$$

SUPPLEMENTAL OBSERVATIONS ARE A COLLECTION OF AUTOMATED INSTRUMENTS
THAT ARE MAINTAINED BY A VARIETY OF FEDERAL AND STATE AGENCIES.
CERTAIN ELEMENTS...SUCH AS HUMIDITY VALUES AND SUSTAINED WIND
SPEEDS...MAY BE APPROXIMATED.